Content
SEND FEEDBACK

Daily
Averages
Monthly
Summary
Turkmenistan

ASHGABAT, TURKMENISTAN


Home > Asia > Turkmenistan
Elevation: 775 feet     Latitude: 37 58N     Longitude: 058 20E

WEATHER
 
SELECT A DAY
Number of Records: 177,393;   Date Range: 3/15/97 - 8/28/14
 
SHARE

PRINT THIS DATA

[ ← Previous Day ]
WEATHER ALMANAC - AUGUST 18, 2013
[ Next Day → ]
[ °C ]   °F
Weather ElementAverageHighLow
Temperature86.1 °F98.6 °F (4:00 pm)73.4 °F (5:30 am)
Dewpoint37.1 °F52 °F (11:00 pm)32 °F (1:00 am)
Humidity16.5 %28 % (11:00 pm)7 % (5:00 pm)
Barometer29.76 in29.83 in (9:00 am)29.69 in (8:00 pm)
Wind Speed8.3 mph11.2 mph (2:00 am)
Weather ElementAverage
Visibility6.2 mi
Wind DirectionW (267 °)

Weather ElementTotal
Precipitation---
Cooling Degree Days21 (Base 65)
Growing Degree Days36 (Base 50)
Averaged from 33 records on August 18, 2013
WEATHER CONDITIONS BREAKOUT
WIND DIRECTION BREAKOUT
WEATHER BY HOUR - AUGUST 18, 2013
[ °C ]   °F
Local TimeTemperatureDewpointHumidityBarometerVisibilityWind DirectionWind SpeedGust SpeedPrecipitationEventsConditions
1:00 AM82.4 °F32.0 °F16 %29.77 in6.2 miWest (260°)8.9 mphClear
2:00 AM79.0 °F42.0 °F17 %29.76 in6.0 miWest (260°)11.2 mph
2:00 AM82.4 °F32.0 °F16 %29.77 in6.2 miWest (260°)11.2 mphClear
3:00 AM82.4 °F32.0 °F16 %29.77 in6.2 miWest (260°)11.2 mphClear
4:00 AM78.8 °F33.8 °F20 %29.77 in6.2 miWest (270°)8.9 mphClear
5:00 AM75.0 °F45.0 °F23 %29.76 in6.0 miWest (260°)8.9 mph
5:00 AM80.6 °F33.8 °F18 %29.77 in6.2 miWest (260°)8.9 mphClear
5:30 AM73.4 °F35.6 °F25 %29.77 in6.2 miWest (270°)8.9 mphClear
6:00 AM75.2 °F35.6 °F24 %29.77 in6.2 miWest (280°)8.9 mphClear
6:30 AM77.0 °F33.8 °F21 %29.80 in6.2 miWNW (300°)11.2 mphClear
7:00 AM73.4 °F35.6 °F25 %29.80 in6.2 miWNW (300°)8.9 mphClear
8:00 AM77.0 °F39.0 °F16 %29.80 in6.0 miWNW (300°)11.2 mph
8:00 AM78.8 °F37.4 °F23 %29.80 in6.2 miWNW (300°)11.2 mphClear
9:00 AM82.4 °F39.2 °F21 %29.83 in6.2 miWNW (290°)8.9 mphClear
10:00 AM86.0 °F39.2 °F19 %29.83 in6.2 miNW (310°)8.9 mphClear
11:00 AM89.6 °F37.4 °F16 %29.80 in6.2 miNW (310°)11.2 mphClear
11:00 AM90.0 °F43.0 °F11 %29.79 in6.0 miNW (310°)11.2 mph
12:00 PM93.2 °F35.6 °F13 %29.80 in6.2 miNorth (350°)8.9 mphClear
1:00 PM95.0 °F33.8 °F12 %29.77 in6.2 miNNW (340°)8.9 mphClear
2:00 PM96.0 °F41.0 °F8 %29.74 in6.0 miNNW (340°)11.2 mph
2:00 PM96.8 °F32.0 °F10 %29.77 in6.2 miNNW (340°)11.2 mphClear
3:00 PM96.8 °F32.0 °F10 %29.74 in6.2 miNW (310°)6.7 mphClear
4:00 PM98.6 °F32.0 °F10 %29.74 in6.2 miNW (320°)6.7 mphClear
5:00 PM96.8 °F32.0 °F10 %29.71 in6.2 miWNW (300°)6.7 mphClear
5:00 PM97.0 °F40.0 °F7 %29.71 in6.0 miNW (310°)6.7 mph
6:00 PM98.6 °F32.0 °F10 %29.71 in6.2 miVariable2.2 mphClear
7:00 PM96.8 °F33.8 °F11 %29.71 in6.2 miSW (220°)4.5 mphClear
8:00 PM90.0 °F45.0 °F12 %29.69 in6.0 miWSW (240°)4.5 mph
8:00 PM91.4 °F35.6 °F14 %29.71 in6.2 miVariable2.2 mphClear
9:00 PM87.8 °F39.2 °F18 %29.74 in6.2 miWSW (250°)4.5 mphClear
10:00 PM84.2 °F42.8 °F23 %29.74 in6.2 miSW (220°)6.7 mphClear
11:00 PM79.0 °F52.0 °F28 %29.72 in6.0 miWSW (240°)6.7 mph
11:00 PM80.6 °F39.2 °F23 %29.74 in6.2 miSW (230°)6.7 mphClear
Hourly data recorded from UTAA, located miles away from Ashgabat, Turkmenistan







STORIES FROM OUR PARTNERS